| time (UTC) | temp F | wind direction | speed MPH | gust MPH | rain 1hr in | rain 24hr in | rain mn in | humidity % | barometer mb |
| 20260831002613 | 74 | 270 | 4.0 | 12.0 | 0.00 | 0.00 | 0.00 | 39 | 1015.0 |
| 20260831001522 | 74 | 270 | 3.0 | 7.0 | 0.00 | 0.00 | 0.00 | 41 | 1015.1 |
| 20260831000522 | 74 | 270 | 3.0 | 9.0 | 0.00 | 0.00 | 0.00 | 40 | 1015.0 |
| 20260830235523 | 74 | 248 | 5.0 | 14.0 | 0.00 | 0.00 | 0.00 | 39 | 1015.0 |
| 20260830234517 | 74 | 248 | 3.0 | 11.0 | 0.00 | 0.00 | 0.00 | 41 | 1015.1 |
| 20260830233517 | 74 | 270 | 4.0 | 9.0 | 0.00 | 0.00 | 0.00 | 40 | 1015.1 |
| 20260830232516 | 74 | 293 | 4.0 | 12.0 | 0.00 | 0.00 | 0.00 | 42 | 1015.3 |
| 20260830231516 | 74 | 293 | 3.0 | 10.0 | 0.00 | 0.00 | 0.00 | 42 | 1015.4 |
| 20260830230522 | 74 | 248 | 4.0 | 16.0 | 0.00 | 0.00 | 0.00 | 41 | 1015.5 |
| 20260830225537 | 74 | 270 | 6.0 | 15.0 | 0.00 | 0.00 | 0.00 | 40 | 1015.5 |
| 20260830224516 | 73 | 270 | 5.0 | 11.0 | 0.00 | 0.00 | 0.00 | 44 | 1015.6 |
| 20260830223517 | 74 | 270 | 5.0 | 15.0 | 0.00 | 0.00 | 0.00 | 42 | 1015.8 |
| 20260830222543 | 73 | 270 | 3.0 | 7.0 | 0.00 | 0.00 | 0.00 | 43 | 1016.0 |
| 20260830221523 | 74 | 158 | 3.0 | 13.0 | 0.00 | 0.00 | 0.00 | 42 | 1016.0 |
| 20260830220516 | 73 | 293 | 5.0 | 16.0 | 0.00 | 0.00 | 0.00 | 41 | 1016.3 |
| 20260830215524 | 73 | 270 | 4.0 | 9.0 | 0.00 | 0.00 | 0.00 | 42 | 1016.5 |
| 20260830214517 | 73 | 270 | 4.0 | 13.0 | 0.00 | 0.00 | 0.00 | 43 | 1016.6 |
| 20260830213516 | 73 | 315 | 3.0 | 8.0 | 0.00 | 0.00 | 0.00 | 46 | 1016.8 |
| 20260830212542 | 73 | 293 | 4.0 | 9.0 | 0.00 | 0.00 | 0.00 | 46 | 1017.0 |
| 20260830211522 | 72 | 293 | 4.0 | 16.0 | 0.00 | 0.00 | 0.00 | 46 | 1017.1 |
| 20260830210522 | 72 | 225 | 4.0 | 12.0 | 0.00 | 0.00 | 0.00 | 46 | 1017.1 |
| 20260830205547 | 72 | 338 | 4.0 | 9.0 | 0.00 | 0.00 | 0.00 | 45 | 1017.2 |
| 20260830204516 | 71 | 293 | 6.0 | 18.0 | 0.00 | 0.00 | 0.00 | 46 | 1017.2 |
| 20260830203541 | 70 | 293 | 5.0 | 16.0 | 0.00 | 0.00 | 0.00 | 47 | 1017.4 |
| 20260830202516 | 71 | 293 | 3.0 | 11.0 | 0.00 | 0.00 | 0.00 | 49 | 1017.5 |
| 20260830201516 | 70 | 248 | 6.0 | 15.0 | 0.00 | 0.00 | 0.00 | 48 | 1017.8 |
| 20260830200518 | 70 | 293 | 5.0 | 12.0 | 0.00 | 0.00 | 0.00 | 48 | 1017.9 |
| 20260830195516 | 69 | 270 | 4.0 | 10.0 | 0.00 | 0.00 | 0.00 | 51 | 1017.9 |
| 20260830194521 | 70 | 293 | 4.0 | 10.0 | 0.00 | 0.00 | 0.00 | 49 | 1018.2 |
| 20260830193516 | 68 | 225 | 4.0 | 12.0 | 0.00 | 0.00 | 0.00 | 49 | 1018.2 |
| 20260830192516 | 68 | 270 | 6.0 | 17.0 | 0.00 | 0.00 | 0.00 | 51 | 1018.1 |
| 20260830191550 | 67 | 270 | 3.0 | 8.0 | 0.00 | 0.00 | 0.00 | 53 | 1018.1 |
| 20260830190547 | 66 | 248 | 5.0 | 15.0 | 0.00 | 0.00 | 0.00 | 54 | 1018.3 |
| 20260830185516 | 64 | 225 | 4.0 | 11.0 | 0.00 | 0.00 | 0.00 | 57 | 1018.3 |
| 20260830184516 | 64 | 270 | 6.0 | 14.0 | 0.00 | 0.00 | 0.00 | 55 | 1018.4 |
| 20260830183516 | 67 | 338 | 3.0 | 14.0 | 0.00 | 0.00 | 0.00 | 55 | 1018.7 |
| 20260830182516 | 66 | 225 | 3.0 | 11.0 | 0.00 | 0.00 | 0.00 | 53 | 1018.9 |
| 20260830181541 | 66 | 248 | 3.0 | 7.0 | 0.00 | 0.00 | 0.00 | 56 | 1019.0 |
| 20260830180522 | 65 | 270 | 4.0 | 11.0 | 0.00 | 0.00 | 0.00 | 57 | 1018.9 |
| 20260830175515 | 64 | 270 | 3.0 | 11.0 | 0.00 | 0.00 | 0.00 | 58 | 1018.8 |
| 20260830174517 | 64 | 248 | 4.0 | 12.0 | 0.00 | 0.00 | 0.00 | 59 | 1018.8 |
| 20260830173517 | 64 | 270 | 4.0 | 12.0 | 0.00 | 0.00 | 0.00 | 59 | 1019.0 |
| 20260830172516 | 63 | 293 | 4.0 | 14.0 | 0.00 | 0.00 | 0.00 | 63 | 1018.8 |
| 20260830171536 | 62 | 293 | 5.0 | 11.0 | 0.00 | 0.00 | 0.00 | 62 | 1018.9 |
| 20260830170515 | 62 | 203 | 4.0 | 10.0 | 0.00 | 0.00 | 0.00 | 62 | 1019.0 |
| 20260830165518 | 62 | 248 | 4.0 | 10.0 | 0.00 | 0.00 | 0.00 | 64 | 1019.0 |
| 20260830164515 | 62 | 293 | 3.0 | 10.0 | 0.00 | 0.00 | 0.00 | 66 | 1019.2 |
| 20260830163515 | 61 | 315 | 3.0 | 13.0 | 0.00 | 0.00 | 0.00 | 68 | 1019.2 |
| 20260830162515 | 61 | 270 | 2.0 | 9.0 | 0.00 | 0.00 | 0.00 | 70 | 1019.4 |
| 20260830161516 | 60 | 293 | 2.0 | 5.0 | 0.00 | 0.00 | 0.00 | 74 | 1019.3 |
| 20260830160515 | 59 | 270 | 5.0 | 13.0 | 0.00 | 0.00 | 0.00 | 74 | 1019.6 |
| 20260830155521 | 59 | 248 | 4.0 | 13.0 | 0.00 | 0.00 | 0.00 | 75 | 1019.7 |
| 20260830154521 | 58 | 270 | 4.0 | 13.0 | 0.00 | 0.00 | 0.00 | 77 | 1019.9 |
| 20260830153515 | 57 | 315 | 4.0 | 12.0 | 0.00 | 0.00 | 0.00 | 77 | 1019.9 |
| 20260830152517 | 57 | 270 | 5.0 | 14.0 | 0.00 | 0.00 | 0.00 | 77 | 1019.9 |
| 20260830151516 | 57 | 315 | 4.0 | 13.0 | 0.00 | 0.00 | 0.00 | 79 | 1019.8 |
| 20260830150517 | 56 | 338 | 4.0 | 12.0 | 0.00 | 0.00 | 0.00 | 81 | 1020.0 |
| 20260830145517 | 56 | 270 | 4.0 | 9.0 | 0.00 | 0.00 | 0.00 | 81 | 1019.9 |
| 20260830144517 | 56 | 293 | 4.0 | 8.0 | 0.00 | 0.00 | 0.00 | 81 | 1020.0 |
| 20260830143547 | 56 | 0 | 2.0 | 6.0 | 0.00 | 0.00 | 0.00 | 81 | 1020.1 |
| 20260830142522 | 56 | 315 | 3.0 | 7.0 | 0.00 | 0.00 | 0.00 | 81 | 1020.0 |
| 20260830141548 | 55 | 270 | 3.0 | 9.0 | 0.00 | 0.00 | 0.00 | 82 | 1020.0 |
| 20260830140517 | 54 | 338 | 3.0 | 9.0 | 0.00 | 0.00 | 0.00 | 83 | 1019.9 |
| 20260830135520 | 54 | 270 | 2.0 | 7.0 | 0.00 | 0.00 | 0.00 | 83 | 1019.8 |
| 20260830134517 | 54 | 338 | 1.0 | 3.0 | 0.00 | 0.00 | 0.00 | 84 | 1019.8 |
| 20260830133517 | 54 | 45 | 2.0 | 6.0 | 0.00 | 0.00 | 0.00 | 84 | 1019.7 |
| 20260830132517 | 54 | 270 | 1.0 | 5.0 | 0.00 | 0.00 | 0.00 | 84 | 1019.7 |
| 20260830131543 | 54 | 315 | 1.0 | 3.0 | 0.00 | 0.00 | 0.00 | 84 | 1019.5 |
| 20260830130523 | 54 | 293 | 3.0 | 7.0 | 0.00 | 0.00 | 0.00 | 84 | 1019.3 |
| 20260830125517 | 54 | 338 | 2.0 | 6.0 | 0.00 | 0.00 | 0.00 | 84 | 1019.2 |
| 20260830124517 | 54 | 270 | 4.0 | 10.0 | 0.00 | 0.00 | 0.00 | 83 | 1019.2 |
| 20260830123517 | 54 | 248 | 3.0 | 10.0 | 0.00 | 0.00 | 0.00 | 83 | 1019.2 |
| 20260830122521 | 54 | 270 | 3.0 | 7.0 | 0.00 | 0.00 | 0.00 | 83 | 1019.1 |
| 20260830121548 | 54 | 248 | 2.0 | 5.0 | 0.00 | 0.00 | 0.00 | 84 | 1019.1 |
| 20260830120516 | 54 | 203 | 2.0 | 10.0 | 0.00 | 0.00 | 0.00 | 83 | 1019.1 |
| 20260830115537 | 54 | 225 | 2.0 | 6.0 | 0.00 | 0.00 | 0.00 | 83 | 1019.1 |
| 20260830114517 | 54 | 338 | 2.0 | 10.0 | 0.00 | 0.00 | 0.00 | 83 | 1019.1 |
| 20260830113517 | 54 | 270 | 1.0 | 10.0 | 0.00 | 0.00 | 0.00 | 82 | 1019.0 |
| 20260830112522 | 54 | 248 | 2.0 | 6.0 | 0.00 | 0.00 | 0.00 | 82 | 1019.0 |
| 20260830111517 | 55 | 270 | 3.0 | 8.0 | 0.00 | 0.00 | 0.00 | 81 | 1019.0 |
| 20260830110517 | 55 | 248 | 3.0 | 10.0 | 0.00 | 0.00 | 0.00 | 81 | 1019.1 |
| 20260830105517 | 55 | 270 | 2.0 | 6.0 | 0.00 | 0.00 | 0.00 | 80 | 1019.0 |
| 20260830104516 | 55 | 293 | 2.0 | 6.0 | 0.00 | 0.00 | 0.00 | 81 | 1018.9 |
| 20260830103522 | 55 | 248 | 2.0 | 5.0 | 0.00 | 0.00 | 0.00 | 81 | 1019.0 |
| 20260830102516 | 55 | 270 | 1.0 | 4.0 | 0.00 | 0.00 | 0.00 | 80 | 1019.0 |
| 20260830101520 | 55 | 248 | 3.0 | 6.0 | 0.00 | 0.00 | 0.00 | 80 | 1018.8 |
| 20260830100519 | 55 | 270 | 2.0 | 10.0 | 0.00 | 0.00 | 0.00 | 79 | 1019.0 |
| 20260830095516 | 56 | 270 | 4.0 | 7.0 | 0.00 | 0.00 | 0.00 | 79 | 1018.9 |
| 20260830094516 | 55 | 270 | 2.0 | 6.0 | 0.00 | 0.00 | 0.00 | 79 | 1019.1 |
| 20260830093516 | 56 | 293 | 2.0 | 4.0 | 0.00 | 0.00 | 0.00 | 78 | 1019.0 |
| 20260830092522 | 56 | 248 | 3.0 | 6.0 | 0.00 | 0.00 | 0.00 | 77 | 1018.9 |
| 20260830091536 | 56 | 270 | 2.0 | 10.0 | 0.00 | 0.00 | 0.00 | 76 | 1018.8 |
| 20260830090520 | 57 | 248 | 1.0 | 3.0 | 0.00 | 0.00 | 0.00 | 74 | 1018.8 |
| 20260830085522 | 57 | 293 | 3.0 | 8.0 | 0.00 | 0.00 | 0.00 | 74 | 1018.8 |
| 20260830084556 | 57 | 293 | 3.0 | 7.0 | 0.00 | 0.00 | 0.00 | 75 | 1018.7 |
| 20260830083544 | 57 | 248 | 3.0 | 5.0 | 0.00 | 0.00 | 0.00 | 74 | 1018.8 |
| 20260830082524 | 57 | 270 | 2.0 | 5.0 | 0.00 | 0.00 | 0.00 | 74 | 1018.9 |
| 20260830081516 | 57 | 225 | 1.0 | 6.0 | 0.00 | 0.00 | 0.00 | 74 | 1019.0 |
| 20260830080516 | 57 | 270 | 2.0 | 8.0 | 0.00 | 0.00 | 0.00 | 74 | 1018.9 |
| 20260830075521 | 57 | 270 | 3.0 | 7.0 | 0.00 | 0.00 | 0.00 | 73 | 1018.9 |
| 20260830074516 | 57 | 270 | 4.0 | 11.0 | 0.00 | 0.00 | 0.00 | 73 | 1018.9 |
| 20260830073522 | 58 | 293 | 4.0 | 11.0 | 0.00 | 0.00 | 0.00 | 72 | 1019.0 |
| 20260830072516 | 58 | 293 | 3.0 | 6.0 | 0.00 | 0.00 | 0.00 | 71 | 1019.0 |
| 20260830071521 | 58 | 270 | 5.0 | 11.0 | 0.00 | 0.00 | 0.00 | 71 | 1019.1 |
| 20260830070516 | 58 | 270 | 5.0 | 13.0 | 0.00 | 0.00 | 0.00 | 70 | 1019.1 |
| 20260830065516 | 58 | 270 | 4.0 | 10.0 | 0.00 | 0.00 | 0.00 | 69 | 1019.1 |
| 20260830064602 | 58 | 270 | 3.0 | 7.0 | 0.00 | 0.00 | 0.00 | 69 | 1019.1 |
| 20260830063518 | 58 | 270 | 3.0 | 8.0 | 0.00 | 0.00 | 0.00 | 69 | 1019.0 |
| 20260830062516 | 58 | 270 | 1.0 | 4.0 | 0.00 | 0.00 | 0.00 | 69 | 1019.0 |
| 20260830061542 | 58 | 0.0 | 2.0 | 0.00 | 0.00 | 0.00 | 69 | 1019.0 | |
| 20260830060521 | 58 | 248 | 1.0 | 4.0 | 0.00 | 0.00 | 0.00 | 69 | 1019.1 |
| 20260830055516 | 59 | 248 | 1.0 | 4.0 | 0.00 | 0.00 | 0.00 | 66 | 1019.1 |
| 20260830054516 | 59 | 270 | 3.0 | 7.0 | 0.00 | 0.00 | 0.00 | 67 | 1018.9 |
| 20260830053516 | 60 | 225 | 1.0 | 3.0 | 0.00 | 0.00 | 0.00 | 66 | 1018.9 |
| 20260830052516 | 60 | 248 | 2.0 | 4.0 | 0.00 | 0.00 | 0.00 | 66 | 1018.9 |
| 20260830051515 | 60 | 270 | 2.0 | 7.0 | 0.00 | 0.00 | 0.00 | 65 | 1018.9 |
| 20260830050516 | 61 | 270 | 2.0 | 5.0 | 0.00 | 0.00 | 0.00 | 63 | 1018.9 |
| 20260830045516 | 61 | 270 | 3.0 | 10.0 | 0.00 | 0.00 | 0.00 | 63 | 1018.8 |
| 20260830044521 | 61 | 270 | 2.0 | 4.0 | 0.00 | 0.00 | 0.00 | 63 | 1018.8 |
| 20260830043547 | 61 | 248 | 3.0 | 10.0 | 0.00 | 0.00 | 0.00 | 62 | 1018.7 |
| 20260830042522 | 62 | 248 | 3.0 | 11.0 | 0.00 | 0.00 | 0.00 | 62 | 1018.6 |
| 20260830041515 | 62 | 270 | 2.0 | 9.0 | 0.00 | 0.00 | 0.00 | 62 | 1018.3 |
| 20260830040515 | 61 | 270 | 3.0 | 7.0 | 0.00 | 0.00 | 0.00 | 62 | 1018.1 |
| 20260830035519 | 61 | 180 | 1.0 | 3.0 | 0.00 | 0.00 | 0.00 | 65 | 1018.0 |
| 20260830034518 | 61 | 0.0 | 1.0 | 0.00 | 0.00 | 0.00 | 62 | 1018.1 | |
| 20260830033517 | 62 | 248 | 1.0 | 5.0 | 0.00 | 0.00 | 0.00 | 62 | 1018.0 |
| 20260830032517 | 62 | 0.0 | 3.0 | 0.00 | 0.00 | 0.00 | 61 | 1017.8 | |
| 20260830031518 | 62 | 270 | 2.0 | 6.0 | 0.00 | 0.00 | 0.00 | 61 | 1017.6 |
| 20260830030515 | 63 | 248 | 2.0 | 6.0 | 0.00 | 0.00 | 0.00 | 60 | 1017.6 |
| 20260830025517 | 63 | 270 | 3.0 | 10.0 | 0.00 | 0.00 | 0.00 | 61 | 1017.5 |
| 20260830024518 | 63 | 270 | 2.0 | 9.0 | 0.00 | 0.00 | 0.00 | 63 | 1017.5 |
| 20260830023518 | 63 | 293 | 1.0 | 7.0 | 0.00 | 0.00 | 0.00 | 63 | 1017.4 |
| 20260830022517 | 63 | 248 | 1.0 | 4.0 | 0.00 | 0.00 | 0.00 | 63 | 1017.4 |
| 20260830021517 | 63 | 248 | 3.0 | 7.0 | 0.00 | 0.00 | 0.00 | 61 | 1017.5 |
| 20260830020522 | 63 | 270 | 1.0 | 9.0 | 0.00 | 0.00 | 0.00 | 61 | 1017.6 |
| 20260830015517 | 64 | 270 | 2.0 | 6.0 | 0.00 | 0.00 | 0.00 | 60 | 1017.7 |
| 20260830014517 | 64 | 203 | 1.0 | 4.0 | 0.00 | 0.00 | 0.00 | 59 | 1017.6 |
| 20260830013523 | 65 | 248 | 3.0 | 7.0 | 0.00 | 0.00 | 0.00 | 58 | 1017.6 |
| 20260830012517 | 65 | 248 | 1.0 | 4.0 | 0.00 | 0.00 | 0.00 | 59 | 1017.6 |
| 20260830012017 | 66 | 248 | 2.0 | 5.0 | 0.00 | 0.00 | 0.00 | 58 | 1017.6 |
| 20260830011017 | 66 | 225 | 4.0 | 11.0 | 0.00 | 0.00 | 0.00 | 57 | 1017.6 |
| 20260830010022 | 67 | 248 | 4.0 | 12.0 | 0.00 | 0.00 | 0.00 | 55 | 1017.7 |
| 20260830005023 | 67 | 315 | 3.0 | 7.0 | 0.00 | 0.00 | 0.00 | 56 | 1017.6 |
| 20260830004017 | 67 | 293 | 3.0 | 7.0 | 0.00 | 0.00 | 0.00 | 55 | 1017.6 |
| 20260830003022 | 68 | 225 | 2.0 | 5.0 | 0.00 | 0.00 | 0.00 | 56 | 1017.7 |